Location: Katherine
(14.4670°S, 132.2670°E)
Time: 17:48:04
(UTC+09:30)

ISS - Visible Passes

Search period start: 15 May 2021 00:00
Search period end: 25 May 2021 00:00
Orbit: 417 x 422 km, 51.6° (Epoch: 15 May)

Date Brightness Start Highest point End Pass type
(mag) Time Alt. Az. Time Alt. Az. Time Alt. Az.
18 May -2.0 06:08:05 10° NNW 06:11:14 37° NE 06:14:23 10° ESE visible
19 May -0.7 05:21:34 10° NNE 05:23:52 17° NE 05:26:10 10° E visible
20 May -3.2 06:09:51 10° WNW 06:13:00 37° SW 06:16:11 10° SSE visible
21 May -3.2 05:26:20 50° SE 05:26:20 50° SE 05:28:57 10° SE visible
